Location: Andrest
(43.3200°N, 0.0641°E)
Time: 22:42:54
(UTC+00:00)

SL-8 Rocket - Pass Details

Date: 25 April 2021
Orbit: 958 x 989 km, 82.9° (Epoch: 13 May)

Event Time Altitude Azimuth Distance (km) Brightness Sun altitude
Rises 00:14:44 0° 356° (N) 3,700 8.1 -33.3°
Reaches altitude 10° 00:17:20 10° 1° (N) 2,751 7.2 -33.3°
Enters shadow 00:23:04 53° 62° (ENE) 1,206 4.5 -33.2°
